Racine, WI

2:37 AM CDT on July 26, 2016 (GMT -0500)
Batten

Weather History for KRAC - May, 2013

Change the Weather History Date:

Tuesday, May 28, 2013

  Actual Average Record
Temperature  
Mean Temperature 62 °F -  
Max Temperature 73 °F 66 °F 90 °F (1969)
Min Temperature 51 °F 50 °F 38 °F (1949)
Degree Days  
Heating Degree Days 3    
Growing Degree Days 12 (Base 50)    
Moisture  
Dew Point 56 °F    
Average Humidity 84    
Maximum Humidity 90    
Minimum Humidity 70    
Precipitation  
Precipitation 0.92 in - - ()
Sea Level Pressure  
Sea Level Pressure 29.81 in    
Wind  
Wind Speed 5 mph (ESE)    
Max Wind Speed 9 mph    
Max Gust Speed -    
Visibility 4 miles    
Events Fog , Rain , Thunderstorm    
Averages and records for this station are not official NWS values.
T = Trace of Precipitation, MM = Missing Value Source: NWS Daily Summary

Daily Weather History Graph

Daily Weather History Graph

Search for Another Location

Airport or City:

Trip Planner

Search our weather history database for the weather conditions in past years. The results will help you decide how hot, cold, wet, or windy it might be!

Date:

Astronomy

May. 28, 2013 Rise Set
Actual Time 5:17 AM CDT 8:19 PM CDT
Civil Twilight 4:43 AM CDT 8:53 PM CDT
Nautical Twilight 4:00 AM CDT 9:37 PM CDT
Astronomical Twilight 3:09 AM CDT 10:28 PM CDT
Moon 11:40 PM CDT (5/28) 9:07 AM CDT (5/28)
Length of Visible Light 16h 10m
Length of Day
15h 02m
Waning Gibbous, 82% of the Moon is Illuminated
May 28
Waning Gibbous
May 31
Last Quarter
Jun 8
New
Jun 16
First Quarter
Jun 23
Full

Hourly Weather History & Observations

Time (CDT) Temp. Dew Point Humidity Pressure Visibility Wind Dir Wind Speed Gust Speed Precip Events Conditions
12:01 AM 51.8 °F 48.2 °F 88% 29.93 in 2.0 mi ESE 6.9 mph - N/A   Overcast
12:10 AM 51.8 °F 48.2 °F 88% 29.92 in 2.0 mi ESE 4.6 mph - N/A   Overcast
12:53 AM 52.0 °F 48.0 °F 86% 29.91 in 2.0 mi East 4.6 mph - N/A   Overcast
1:26 AM 51.8 °F 48.2 °F 88% 29.89 in 1.5 mi East 5.8 mph - N/A   Overcast
1:41 AM 51.8 °F 48.2 °F 88% 29.89 in 0.5 mi East 5.8 mph - N/A Fog Fog
1:53 AM 52.0 °F 48.0 °F 86% 29.89 in 0.5 mi SE 6.9 mph - N/A Fog Fog
2:53 AM 51.1 °F 48.0 °F 89% 29.86 in 0.5 mi ESE 5.8 mph - 0.02 in Fog , Rain Light Rain
3:53 AM 52.0 °F 48.0 °F 86% 29.85 in 0.5 mi ESE 4.6 mph - 0.03 in Fog , Rain Light Rain
4:42 AM 53.6 °F 50.0 °F 88% 29.84 in 1.8 mi NE 4.6 mph - 0.04 in Rain Light Rain
4:49 AM 53.6 °F 50.0 °F 88% 29.85 in 2.5 mi NNE 3.5 mph - 0.04 in   Overcast
4:53 AM 53.1 °F 50.0 °F 89% 29.85 in 2.5 mi ENE 3.5 mph - 0.04 in   Overcast
5:06 AM 53.6 °F 50.0 °F 88% 29.83 in 1.5 mi ENE 3.5 mph - N/A   Overcast
5:25 AM 53.6 °F 50.0 °F 88% 29.83 in 0.8 mi East 5.8 mph - 0.00 in Thunderstorm Mist
5:46 AM 53.6 °F 48.2 °F 82% 29.83 in 0.2 mi East 4.6 mph - 0.01 in Fog Fog
5:53 AM 53.1 °F 48.9 °F 86% 29.83 in 0.2 mi East 4.6 mph - 0.01 in Fog Fog
6:05 AM 51.8 °F 48.2 °F 88% 29.82 in 0.2 mi East 4.6 mph - N/A Fog , Thunderstorm Fog
6:20 AM 51.8 °F 48.2 °F 88% 29.81 in 0.2 mi ESE 4.6 mph - 0.03 in Fog , Rain Light Rain
6:50 AM 53.6 °F 48.2 °F 82% 29.81 in 0.2 mi ESE 3.5 mph - 0.04 in Fog , Rain , Thunderstorm Light Rain
6:53 AM 53.1 °F 48.9 °F 86% 29.81 in 0.2 mi ESE 4.6 mph - 0.04 in Fog , Rain , Thunderstorm Light Rain
7:26 AM 53.6 °F 50.0 °F 88% 29.80 in 0.2 mi ESE 3.5 mph - 0.00 in Fog Fog
7:53 AM 54.0 °F 51.1 °F 90% 29.80 in 0.2 mi East 3.5 mph - 0.00 in Fog Fog
8:53 AM 55.0 °F 52.0 °F 89% 29.81 in 2.0 mi Calm Calm - 0.00 in Rain Light Rain
9:00 AM 55.4 °F 51.8 °F 88% 29.81 in 5.0 mi ESE 3.5 mph - 0.01 in Rain Light Rain
9:20 AM 57.2 °F 53.6 °F 88% 29.79 in 2.5 mi Calm Calm - 0.01 in Rain Light Rain
9:28 AM 57.2 °F 53.6 °F 88% 29.78 in 3.0 mi NNE 4.6 mph - 0.01 in Rain Light Rain
9:53 AM 55.9 °F 53.1 °F 90% 29.79 in 3.0 mi ESE 3.5 mph - 0.01 in Rain Light Rain
10:53 AM 62.1 °F 57.9 °F 86% 29.78 in 5.0 mi South 5.8 mph - 0.00 in   Mostly Cloudy
11:53 AM 71.1 °F 63.0 °F 75% 29.78 in 8.0 mi South 9.2 mph - N/A   Mostly Cloudy
12:12 PM 69.8 °F 62.6 °F 78% 29.78 in 7.0 mi South 6.9 mph - N/A   Overcast
12:33 PM 71.6 °F 64.4 °F 78% 29.78 in 8.0 mi South 5.8 mph - N/A   Mostly Cloudy
12:53 PM 71.1 °F 63.0 °F 75% 29.78 in 8.0 mi SSE 6.9 mph - N/A   Overcast
1:04 PM 73.4 °F 64.4 °F 73% 29.78 in 8.0 mi SE 6.9 mph - N/A   Overcast
1:53 PM 71.1 °F 62.1 °F 73% 29.77 in 10.0 mi SSE 5.8 mph - 0.00 in   Overcast
2:10 PM 71.6 °F 62.6 °F 73% 29.77 in 10.0 mi South 3.5 mph - N/A   Overcast
2:53 PM 70.0 °F 61.0 °F 73% 29.78 in 10.0 mi Calm Calm - 0.00 in   Overcast
3:53 PM 68.0 °F 59.0 °F 73% 29.77 in 10.0 mi East 3.5 mph - N/A   Overcast
4:53 PM 69.1 °F 59.0 °F 70% 29.76 in 10.0 mi Calm Calm - N/A   Overcast
5:53 PM 66.9 °F 57.9 °F 73% 29.76 in 8.0 mi NE 3.5 mph - N/A   Overcast
6:53 PM 68.0 °F 60.1 °F 76% 29.75 in 8.0 mi Calm Calm - N/A   Overcast
7:53 PM 68.0 °F 61.0 °F 78% 29.74 in 7.0 mi Calm Calm - N/A   Overcast
8:53 PM 66.0 °F 59.0 °F 78% 29.71 in 6.0 mi ESE 6.9 mph - N/A   Haze
9:34 PM 64.4 °F 60.8 °F 88% 29.79 in 2.5 mi Variable 3.5 mph - 0.06 in Rain , Thunderstorm Light Rain
9:41 PM 66.2 °F 62.6 °F 88% 29.80 in 1.0 mi Variable 5.8 mph - 0.19 in Rain , Thunderstorm Heavy Rain
9:48 PM 69.8 °F 64.4 °F 83% 29.77 in 3.0 mi SSE 6.9 mph - 0.19 in Rain , Thunderstorm Light Thunderstorms and Rain
9:53 PM 69.1 °F 64.0 °F 84% 29.78 in 5.0 mi SSW 4.6 mph - 0.20 in Rain , Thunderstorm Light Thunderstorms and Rain
10:02 PM 69.8 °F 66.2 °F 88% 29.81 in 1.5 mi WSW 5.8 mph - 0.11 in Rain , Thunderstorm Heavy Thunderstorms and Rain
10:08 PM 71.6 °F 66.2 °F 83% 29.80 in 0.5 mi Calm Calm - 0.40 in Fog , Rain , Thunderstorm Heavy Thunderstorms and Rain
10:18 PM 71.6 °F 66.2 °F 83% 29.80 in 1.0 mi Variable 4.6 mph - 0.54 in Rain , Thunderstorm Heavy Thunderstorms and Rain
10:24 PM 71.6 °F 66.2 °F 83% 29.81 in 2.0 mi Variable 5.8 mph - 0.55 in Rain , Thunderstorm Light Rain
10:32 PM 71.6 °F 66.2 °F 83% 29.78 in 4.0 mi SSW 5.8 mph - 0.57 in Rain , Thunderstorm Rain
10:46 PM 69.8 °F 64.4 °F 83% 29.76 in 8.0 mi NNE 8.1 mph - 0.57 in Thunderstorm Scattered Clouds
10:53 PM 68.0 °F 64.0 °F 87% 29.78 in 5.0 mi Calm Calm - 0.57 in   Partly Cloudy
11:24 PM 62.6 °F 57.2 °F 82% 29.80 in 2.5 mi NE 9.2 mph - N/A   Mostly Cloudy
11:34 PM 60.8 °F 55.4 °F 82% 29.81 in 2.0 mi NE 5.8 mph - N/A   Mostly Cloudy
11:48 PM 59.0 °F 55.4 °F 88% 29.84 in 3.0 mi NE 3.5 mph - N/A   Overcast
11:53 PM 59.0 °F 55.0 °F 87% 29.83 in 3.0 mi NNE 4.6 mph - N/A   Overcast